,,,PA_Meas_PMT16A,,PR_Meas_QMR101_102,,RH_Meas_QMH101,,SR_Meas_QMS101,,TA_Meas_QMH101,,GenWind,,GenWind,
date,time,status,PA,status,PR,status,RH,status,SR,status,TA,status,DirAvg,status,SpdAvg,
2010-01-30, 00:00:04,VALID,1011.68,VALID,0,VALID,67.4803,VALID,0,VALID,23.7153,VALID,120,VALID,0.377344,
2010-01-30, 00:01:04,VALID,1011.67,VALID,0,VALID,67.4803,VALID,0,VALID,23.7348,VALID,128,VALID,0.425,
2010-01-30, 00:02:04,VALID,1011.66,VALID,0,VALID,67.4803,VALID,0,VALID,23.7135,VALID,139,VALID,0.728125,
2010-01-30, 00:03:04,VALID,1011.67,VALID,0,VALID,67.465,VALID,0,VALID,23.733,VALID,118,VALID,0.217969,
2010-01-30, 00:04:04,VALID,1011.63,VALID,0,VALID,67.4727,VALID,0,VALID,23.7543,VALID,127,VALID,0.177344,
2010-01-30, 00:05:04,VALID,1011.62,VALID,0,VALID,67.4879,VALID,0,VALID,23.7525,VALID,126,VALID,0,
2010-01-30, 00:06:04,VALID,1011.6,VALID,0,VALID,67.4879,VALID,0,VALID,23.7543,VALID,92,VALID,0.546484,
2010-01-30, 00:07:04,VALID,1011.59,VALID,0,VALID,67.4879,VALID,0,VALID,23.7525,VALID,100,VALID,0.866406,
2010-01-30, 00:08:04,VALID,1011.57,VALID,0,VALID,67.4879,VALID,0,VALID,23.7543,VALID,84,VALID,0.476172,
2010-01-30, 00:09:04,VALID,1011.55,VALID,0,VALID,67.5108,VALID,0,VALID,23.7525,VALID,53,VALID,0.419922,
2010-01-30, 00:10:04,VALID,1011.52,VALID,0,VALID,67.5184,VALID,0,VALID,23.7525,VALID,61,VALID,0.531641,
2010-01-30, 00:11:04,VALID,1011.51,VALID,0,VALID,67.5337,VALID,0,VALID,23.7543,VALID,42,VALID,0.418359,
2010-01-30, 00:12:04,VALID,1011.51,VALID,0,VALID,67.526,VALID,0,VALID,23.733,VALID,37,VALID,0.285547,
2010-01-30, 00:13:04,VALID,1011.47,VALID,0,VALID,67.5337,VALID,0,VALID,23.733,VALID,44,VALID,0.529297,
2010-01-30, 00:14:04,VALID,1011.48,VALID,0,VALID,67.5642,VALID,0,VALID,23.7135,VALID,45,VALID,0.313281,
2010-01-30, 00:15:04,VALID,1011.44,VALID,0,VALID,67.5642,VALID,0,VALID,23.6727,VALID,31,VALID,0.472656,
2010-01-30, 00:16:04,VALID,1011.44,VALID,0,VALID,67.5794,VALID,0,VALID,23.6745,VALID,30,VALID,0.119531,
2010-01-30, 00:17:04,VALID,1011.42,VALID,0,VALID,67.5794,VALID,0,VALID,23.6745,VALID,53,VALID,0.272266,
2010-01-30, 00:18:04,VALID,1011.41,VALID,0,VALID,67.5718,VALID,0,VALID,23.6356,VALID,53,VALID,0,
2010-01-30, 00:19:04,VALID,1011.41,VALID,0,VALID,67.5794,VALID,0,VALID,23.6356,VALID,53,VALID,0,
2010-01-30, 00:20:04,VALID,1011.39,VALID,0,VALID,67.5794,VALID,0,VALID,23.6161,VALID,53,VALID,0,
2010-01-30, 00:21:04,VALID,1011.37,VALID,0,VALID,67.5947,VALID,0,VALID,23.5966,VALID,53,VALID,0,
2010-01-30, 00:22:04,VALID,1011.36,VALID,0,VALID,67.6023,VALID,0.105969,VALID,23.5966,VALID,53,VALID,0,
2010-01-30, 00:23:04,VALID,1011.34,VALID,0,VALID,67.6023,VALID,0,VALID,23.5363,VALID,53,VALID,0,
2010-01-30, 00:24:04,VALID,1011.34,VALID,0,VALID,67.6023,VALID,0,VALID,23.5576,VALID,53,VALID,0,
2010-01-30, 00:25:04,VALID,1011.33,VALID,0,VALID,67.6023,VALID,0,VALID,23.5576,VALID,53,VALID,0,
2010-01-30, 00:26:04,VALID,1011.33,VALID,0,VALID,67.6023,VALID,0,VALID,23.5363,VALID,53,VALID,0,
2010-01-30, 00:27:04,VALID,1011.29,VALID,0,VALID,67.6099,VALID,0.105969,VALID,23.5771,VALID,54,VALID,0.620703,
2010-01-30, 00:28:04,VALID,1011.31,VALID,0,VALID,67.6023,VALID,0,VALID,23.5576,VALID,68,VALID,0.737109,
2010-01-30, 00:29:04,VALID,1011.3,VALID,0,VALID,67.6099,VALID,0,VALID,23.5363,VALID,74,VALID,0.645703,
2010-01-30, 00:30:04,VALID,1011.26,VALID,0,VALID,67.6099,VALID,0,VALID,23.5771,VALID,83,VALID,0.639453,
2010-01-30, 00:31:04,VALID,1011.26,VALID,0,VALID,67.6023,VALID,0,VALID,23.5576,VALID,84,VALID,0.64375,
2010-01-30, 00:32:04,VALID,1011.22,VALID,0,VALID,67.6176,VALID,0,VALID,23.5576,VALID,85,VALID,0.850781,
2010-01-30, 00:33:04,VALID,1011.22,VALID,0,VALID,67.6252,VALID,0,VALID,23.5771,VALID,73,VALID,0.503906,
2010-01-30, 00:34:04,VALID,1011.22,VALID,0,VALID,67.6176,VALID,0.105969,VALID,23.5558,VALID,65,VALID,0.437109,
2010-01-30, 00:35:04,VALID,1011.19,VALID,0,VALID,67.6252,VALID,0,VALID,23.5576,VALID,95,VALID,0.817578,
2010-01-30, 00:36:04,VALID,1011.2,VALID,0,VALID,67.6404,VALID,0,VALID,23.5363,VALID,78,VALID,0.598828,
2010-01-30, 00:37:04,VALID,1011.2,VALID,0,VALID,67.6328,VALID,0,VALID,23.5576,VALID,79,VALID,0.257813,
2010-01-30, 00:38:04,VALID,1011.2,VALID,0,VALID,67.6328,VALID,0,VALID,23.5381,VALID,79,VALID,0.424219,
2010-01-30, 00:39:04,VALID,1011.18,VALID,0,VALID,67.6176,VALID,0,VALID,23.5363,VALID,86,VALID,0.5,
2010-01-30, 00:40:04,VALID,1011.22,VALID,0,VALID,67.6252,VALID,0,VALID,23.5381,VALID,85,VALID,0.744141,
2010-01-30, 00:41:04,VALID,1011.18,VALID,0,VALID,67.6481,VALID,0,VALID,23.5381,VALID,85,VALID,0.390625,
2010-01-30, 00:42:04,VALID,1011.15,VALID,0,VALID,67.6404,VALID,0.105969,VALID,23.5169,VALID,86,VALID,0.707422,
2010-01-30, 00:43:04,VALID,1011.14,VALID,0,VALID,67.6557,VALID,0,VALID,23.5381,VALID,86,VALID,0.509766,
2010-01-30, 00:44:04,VALID,1011.15,VALID,0,VALID,67.6404,VALID,0,VALID,23.5381,VALID,94,VALID,0.2125,
2010-01-30, 00:45:04,VALID,1011.15,VALID,0,VALID,67.6481,VALID,0,VALID,23.4974,VALID,59,VALID,0.450391,
2010-01-30, 00:46:04,VALID,1011.13,VALID,0,VALID,67.6481,VALID,0.105969,VALID,23.5186,VALID,58,VALID,0.463281,
2010-01-30, 00:47:04,VALID,1011.13,VALID,0,VALID,67.6557,VALID,0,VALID,23.5186,VALID,58,VALID,0,
2010-01-30, 00:48:04,VALID,1011.11,VALID,0,VALID,67.6404,VALID,0,VALID,23.5186,VALID,58,VALID,0.00429688,
2010-01-30, 00:49:04,VALID,1011.09,VALID,0,VALID,67.6709,VALID,0.105969,VALID,23.4974,VALID,58,VALID,0,
2010-01-30, 00:50:04,VALID,1011.08,VALID,0,VALID,67.6786,VALID,0,VALID,23.4974,VALID,58,VALID,0,
2010-01-30, 00:51:04,VALID,1011.07,VALID,0,VALID,67.6633,VALID,0,VALID,23.4992,VALID,58,VALID,0,
2010-01-30, 00:52:04,VALID,1011.03,VALID,0,VALID,67.6557,VALID,0,VALID,23.4974,VALID,58,VALID,0,
2010-01-30, 00:53:04,VALID,1011.02,VALID,0,VALID,67.6786,VALID,0,VALID,23.4779,VALID,58,VALID,0,
2010-01-30, 00:54:04,VALID,1011.05,VALID,0,VALID,67.6709,VALID,0,VALID,23.4992,VALID,58,VALID,0,
2010-01-30, 00:55:04,VALID,1010.99,VALID,0,VALID,67.6481,VALID,0,VALID,23.4992,VALID,58,VALID,0,
2010-01-30, 00:56:04,VALID,1011,VALID,0,VALID,67.6633,VALID,0.105969,VALID,23.4584,VALID,58,VALID,0,
2010-01-30, 00:57:04,VALID,1010.98,VALID,0,VALID,67.6633,VALID,0.105969,VALID,23.4992,VALID,58,VALID,0,
2010-01-30, 00:58:04,VALID,1010.96,VALID,0,VALID,67.6862,VALID,0,VALID,23.4797,VALID,58,VALID,0,
2010-01-30, 00:59:04,VALID,1010.96,VALID,0,VALID,67.6786,VALID,0,VALID,23.4602,VALID,58,VALID,0,
2010-01-30, 01:00:04,VALID,1010.94,VALID,0,VALID,67.6709,VALID,0,VALID,23.4602,VALID,58,VALID,0,
2010-01-30, 01:01:04,VALID,1010.93,VALID,0,VALID,67.6633,VALID,0,VALID,23.4602,VALID,58,VALID,0,
2010-01-30, 01:02:04,VALID,1010.95,VALID,0,VALID,67.6786,VALID,0,VALID,23.4407,VALID,58,VALID,0,
2010-01-30, 01:03:04,VALID,1010.9,VALID,0,VALID,67.6709,VALID,0,VALID,23.4407,VALID,83,VALID,0,
2010-01-30, 01:04:04,VALID,1010.95,VALID,0,VALID,67.6557,VALID,0.105969,VALID,23.4602,VALID,100,VALID,0,
2010-01-30, 01:05:04,VALID,1010.93,VALID,0,VALID,67.6633,VALID,0.105969,VALID,23.4602,VALID,100,VALID,0,
2010-01-30, 01:06:04,VALID,1010.95,VALID,0,VALID,67.6481,VALID,0,VALID,23.4602,VALID,100,VALID,0,
2010-01-30, 01:07:04,VALID,1010.95,VALID,0,VALID,67.6557,VALID,0,VALID,23.4815,VALID,100,VALID,0,
2010-01-30, 01:08:04,VALID,1010.95,VALID,0,VALID,67.6786,VALID,0,VALID,23.4407,VALID,100,VALID,0,
2010-01-30, 01:09:04,VALID,1010.94,VALID,0,VALID,67.6633,VALID,0,VALID,23.4407,VALID,100,VALID,0,
2010-01-30, 01:10:04,VALID,1010.93,VALID,0,VALID,67.6786,VALID,0,VALID,23.4,VALID,100,VALID,0,
2010-01-30, 01:11:04,VALID,1010.91,VALID,0,VALID,67.7091,VALID,0,VALID,23.4017,VALID,100,VALID,0,
2010-01-30, 01:12:04,VALID,1010.92,VALID,0,VALID,67.7091,VALID,0,VALID,23.4017,VALID,100,VALID,0,
2010-01-30, 01:13:04,VALID,1010.88,VALID,0,VALID,67.7243,VALID,0.105969,VALID,23.361,VALID,153,VALID,0,
2010-01-30, 01:14:04,VALID,1010.91,VALID,0,VALID,67.7167,VALID,0,VALID,23.3823,VALID,153,VALID,0,
2010-01-30, 01:15:04,VALID,1010.87,VALID,0,VALID,67.7243,VALID,0,VALID,23.3628,VALID,153,VALID,0,
2010-01-30, 01:16:04,VALID,1010.87,VALID,0,VALID,67.7091,VALID,0,VALID,23.3628,VALID,153,VALID,0,
2010-01-30, 01:17:04,VALID,1010.83,VALID,0,VALID,67.7014,VALID,0,VALID,23.3628,VALID,153,VALID,0,
2010-01-30, 01:18:04,VALID,1010.82,VALID,0,VALID,67.7014,VALID,0,VALID,23.3628,VALID,153,VALID,0,
2010-01-30, 01:19:04,VALID,1010.82,VALID,0,VALID,67.7014,VALID,0,VALID,23.3415,VALID,153,VALID,0,
2010-01-30, 01:20:04,VALID,1010.77,VALID,0,VALID,67.7091,VALID,0,VALID,23.3628,VALID,153,VALID,0,
2010-01-30, 01:21:04,VALID,1010.77,VALID,0,VALID,67.7319,VALID,0,VALID,23.3433,VALID,153,VALID,0,
2010-01-30, 01:22:04,VALID,1010.75,VALID,0,VALID,67.7243,VALID,0,VALID,23.3433,VALID,153,VALID,0,
2010-01-30, 01:23:04,VALID,1010.71,VALID,0,VALID,67.7167,VALID,0,VALID,23.3433,VALID,153,VALID,0,
2010-01-30, 01:24:04,VALID,1010.7,VALID,0,VALID,67.7167,VALID,0,VALID,23.3026,VALID,153,VALID,0,
2010-01-30, 01:25:04,VALID,1010.7,VALID,0,VALID,67.7472,VALID,0,VALID,23.3043,VALID,153,VALID,0,
2010-01-30, 01:26:04,VALID,1010.67,VALID,0,VALID,67.7243,VALID,0,VALID,23.3043,VALID,150,VALID,0,
2010-01-30, 01:27:04,VALID,1010.64,VALID,0,VALID,67.7319,VALID,0,VALID,23.2848,VALID,148,VALID,0,
2010-01-30, 01:28:04,VALID,1010.63,VALID,0,VALID,67.7319,VALID,0,VALID,23.3043,VALID,148,VALID,0,
2010-01-30, 01:29:04,VALID,1010.62,VALID,0,VALID,67.7472,VALID,0,VALID,23.2848,VALID,146,VALID,0,
2010-01-30, 01:30:04,VALID,1010.61,VALID,0,VALID,67.7472,VALID,0,VALID,23.2848,VALID,84,VALID,0,
2010-01-30, 01:31:04,VALID,1010.59,VALID,0,VALID,67.7624,VALID,0,VALID,23.2848,VALID,84,VALID,0,
2010-01-30, 01:32:04,VALID,1010.56,VALID,0,VALID,67.7014,VALID,0,VALID,23.2654,VALID,84,VALID,0,
2010-01-30, 01:33:04,VALID,1010.57,VALID,0,VALID,67.7243,VALID,0,VALID,23.2654,VALID,84,VALID,0,
2010-01-30, 01:34:04,VALID,1010.54,VALID,0,VALID,67.7548,VALID,0.105969,VALID,23.2459,VALID,84,VALID,0,
2010-01-30, 01:35:04,VALID,1010.49,VALID,0,VALID,67.7624,VALID,0,VALID,23.2264,VALID,84,VALID,0,
2010-01-30, 01:36:04,VALID,1010.52,VALID,0,VALID,67.7624,VALID,0,VALID,23.2069,VALID,84,VALID,0,
2010-01-30, 01:37:04,VALID,1010.53,VALID,0,VALID,67.7701,VALID,0,VALID,23.1874,VALID,84,VALID,0,
2010-01-30, 01:38:04,VALID,1010.53,VALID,0,VALID,67.7701,VALID,0,VALID,23.1874,VALID,84,VALID,0,
2010-01-30, 01:39:04,VALID,1010.52,VALID,0,VALID,67.8006,VALID,0,VALID,23.1874,VALID,84,VALID,0,
2010-01-30, 01:40:04,VALID,1010.5,VALID,0,VALID,67.7777,VALID,0,VALID,23.1679,VALID,84,VALID,0,
2010-01-30, 01:41:04,VALID,1010.52,VALID,0,VALID,67.7777,VALID,0,VALID,23.1892,VALID,84,VALID,0,
2010-01-30, 01:42:04,VALID,1010.53,VALID,0,VALID,67.7777,VALID,0,VALID,23.1485,VALID,84,VALID,0,
2010-01-30, 01:43:04,VALID,1010.53,VALID,0,VALID,67.7929,VALID,0,VALID,23.129,VALID,84,VALID,0,
2010-01-30, 01:44:04,VALID,1010.52,VALID,0,VALID,67.8158,VALID,0,VALID,23.129,VALID,84,VALID,0,
2010-01-30, 01:45:04,VALID,1010.53,VALID,0,VALID,67.8158,VALID,0,VALID,23.1095,VALID,84,VALID,0,
2010-01-30, 01:46:04,VALID,1010.54,VALID,0,VALID,67.8234,VALID,0,VALID,23.0883,VALID,84,VALID,0,
2010-01-30, 01:47:04,VALID,1010.55,VALID,0,VALID,67.8234,VALID,0.105969,VALID,23.09,VALID,84,VALID,0,
2010-01-30, 01:48:04,VALID,1010.58,VALID,0,VALID,67.8158,VALID,0,VALID,23.09,VALID,84,VALID,0,
2010-01-30, 01:49:04,VALID,1010.59,VALID,0,VALID,67.8082,VALID,0,VALID,23.09,VALID,84,VALID,0,
2010-01-30, 01:50:04,VALID,1010.61,VALID,0,VALID,67.8158,VALID,0.105969,VALID,23.09,VALID,84,VALID,0,
2010-01-30, 01:51:04,VALID,1010.61,VALID,0,VALID,67.8158,VALID,0,VALID,23.0705,VALID,84,VALID,0,
2010-01-30, 01:52:04,VALID,1010.61,VALID,0,VALID,67.8234,VALID,0,VALID,23.0493,VALID,84,VALID,0,
2010-01-30, 01:53:04,VALID,1010.58,VALID,0,VALID,67.854,VALID,0,VALID,23.09,VALID,84,VALID,0,
2010-01-30, 01:54:04,VALID,1010.6,VALID,0,VALID,67.8387,VALID,0,VALID,23.0298,VALID,84,VALID,0,
2010-01-30, 01:55:04,VALID,1010.58,VALID,0,VALID,67.8311,VALID,0,VALID,23.0511,VALID,84,VALID,0,
2010-01-30, 01:56:04,VALID,1010.57,VALID,0,VALID,67.8234,VALID,0,VALID,23.0511,VALID,84,VALID,0,
2010-01-30, 01:57:04,VALID,1010.58,VALID,0,VALID,67.8006,VALID,0,VALID,23.0705,VALID,84,VALID,0,
2010-01-30, 01:58:04,VALID,1010.58,VALID,0,VALID,67.7853,VALID,0,VALID,23.09,VALID,84,VALID,0,
2010-01-30, 01:59:04,VALID,1010.59,VALID,0,VALID,67.7548,VALID,0,VALID,23.0883,VALID,84,VALID,0,
2010-01-30, 02:00:04,VALID,1010.6,VALID,0,VALID,67.7777,VALID,0,VALID,23.1095,VALID,84,VALID,0,
2010-01-30, 02:01:04,VALID,1010.59,VALID,0,VALID,67.7929,VALID,0,VALID,23.1095,VALID,84,VALID,0,
2010-01-30, 02:02:04,VALID,1010.59,VALID,0,VALID,67.7777,VALID,0,VALID,23.1095,VALID,84,VALID,0,
2010-01-30, 02:03:04,VALID,1010.6,VALID,0,VALID,67.7319,VALID,0.105969,VALID,23.129,VALID,84,VALID,0,
2010-01-30, 02:04:04,VALID,1010.61,VALID,0,VALID,67.7396,VALID,0,VALID,23.1485,VALID,84,VALID,0,
2010-01-30, 02:05:04,VALID,1010.56,VALID,0,VALID,67.7624,VALID,0,VALID,23.1077,VALID,84,VALID,0,
2010-01-30, 02:06:04,VALID,1010.53,VALID,0,VALID,67.7624,VALID,0,VALID,23.129,VALID,84,VALID,0,
2010-01-30, 02:07:04,VALID,1010.54,VALID,0,VALID,67.7624,VALID,0,VALID,23.129,VALID,84,VALID,0,
2010-01-30, 02:08:04,VALID,1010.54,VALID,0,VALID,67.7624,VALID,0,VALID,23.129,VALID,84,VALID,0,
2010-01-30, 02:09:04,VALID,1010.52,VALID,0,VALID,67.7624,VALID,0,VALID,23.129,VALID,84,VALID,0,
2010-01-30, 02:10:04,VALID,1010.53,VALID,0,VALID,67.7624,VALID,0.105969,VALID,23.129,VALID,84,VALID,0,
2010-01-30, 02:11:04,VALID,1010.53,VALID,0,VALID,67.7701,VALID,0,VALID,23.129,VALID,84,VALID,0,
2010-01-30, 02:12:04,VALID,1010.5,VALID,0,VALID,67.7853,VALID,0,VALID,23.129,VALID,84,VALID,0,
2010-01-30, 02:13:04,VALID,1010.51,VALID,0,VALID,67.7929,VALID,0,VALID,23.1095,VALID,84,VALID,0,
2010-01-30, 02:14:04,VALID,1010.52,VALID,0,VALID,67.7929,VALID,0,VALID,23.1095,VALID,84,VALID,0,
2010-01-30, 02:15:04,VALID,1010.51,VALID,0,VALID,67.8006,VALID,0,VALID,23.1095,VALID,85,VALID,0,
2010-01-30, 02:16:04,VALID,1010.51,VALID,0,VALID,67.7929,VALID,0,VALID,23.09,VALID,84,VALID,0,
2010-01-30, 02:17:04,VALID,1010.5,VALID,0,VALID,67.7929,VALID,0,VALID,23.09,VALID,84,VALID,0,
2010-01-30, 02:18:04,VALID,1010.45,VALID,0,VALID,67.8234,VALID,0,VALID,23.09,VALID,84,VALID,0,
2010-01-30, 02:19:04,VALID,1010.44,VALID,0,VALID,67.8082,VALID,0,VALID,23.0705,VALID,84,VALID,0,
2010-01-30, 02:20:04,VALID,1010.44,VALID,0,VALID,67.8006,VALID,0,VALID,23.0705,VALID,85,VALID,0,
2010-01-30, 02:21:04,VALID,1010.39,VALID,0,VALID,67.8082,VALID,0.105969,VALID,23.09,VALID,84,VALID,0,
2010-01-30, 02:22:04,VALID,1010.37,VALID,0,VALID,67.8006,VALID,0.105969,VALID,23.0493,VALID,84,VALID,0,
2010-01-30, 02:23:04,VALID,1010.36,VALID,0,VALID,67.8006,VALID,0,VALID,23.0705,VALID,84,VALID,0,
2010-01-30, 02:24:04,VALID,1010.33,VALID,0,VALID,67.7777,VALID,0,VALID,23.0705,VALID,84,VALID,0,
2010-01-30, 02:25:04,VALID,1010.28,VALID,0,VALID,67.7929,VALID,0,VALID,23.0493,VALID,84,VALID,0,
2010-01-30, 02:26:04,VALID,1010.29,VALID,0,VALID,67.8082,VALID,0,VALID,23.0705,VALID,84,VALID,0,
2010-01-30, 02:27:04,VALID,1010.21,VALID,0,VALID,67.8234,VALID,0.105969,VALID,23.0705,VALID,84,VALID,0,
2010-01-30, 02:28:04,VALID,1010.21,VALID,0,VALID,67.8234,VALID,0.105969,VALID,23.0316,VALID,84,VALID,0,
2010-01-30, 02:29:04,VALID,1010.19,VALID,0,VALID,67.854,VALID,0.105969,VALID,23.0103,VALID,84,VALID,0,
2010-01-30, 02:30:04,VALID,1010.18,VALID,0,VALID,67.8387,VALID,0,VALID,23.0103,VALID,84,VALID,0,
2010-01-30, 02:31:04,VALID,1010.17,VALID,0,VALID,67.8463,VALID,0,VALID,23.0121,VALID,85,VALID,0,
2010-01-30, 02:32:04,VALID,1010.14,VALID,0,VALID,67.854,VALID,0.105969,VALID,22.9714,VALID,85,VALID,0,
2010-01-30, 02:33:04,VALID,1010.13,VALID,0,VALID,67.8463,VALID,0.105969,VALID,22.9909,VALID,84,VALID,0,
2010-01-30, 02:34:04,VALID,1010.12,VALID,0,VALID,67.8311,VALID,0,VALID,22.9926,VALID,84,VALID,0,
2010-01-30, 02:35:04,VALID,1010.13,VALID,0,VALID,67.8311,VALID,0.105969,VALID,22.9926,VALID,84,VALID,0,
2010-01-30, 02:36:04,VALID,1010.12,VALID,0,VALID,67.8311,VALID,0,VALID,22.9909,VALID,84,VALID,0,
2010-01-30, 02:37:04,VALID,1010.15,VALID,0,VALID,67.8006,VALID,0.105969,VALID,23.0121,VALID,84,VALID,0,
2010-01-30, 02:38:04,VALID,1010.11,VALID,0,VALID,67.8082,VALID,0,VALID,22.9909,VALID,84,VALID,0,
2010-01-30, 02:39:04,VALID,1010.13,VALID,0,VALID,67.7853,VALID,0,VALID,23.0121,VALID,84,VALID,0,
2010-01-30, 02:40:04,VALID,1010.08,VALID,0,VALID,67.7929,VALID,0.105969,VALID,22.9909,VALID,84,VALID,0,
2010-01-30, 02:41:04,VALID,1010.07,VALID,0,VALID,67.8082,VALID,0.105969,VALID,22.9714,VALID,84,VALID,0,
2010-01-30, 02:42:04,VALID,1010.08,VALID,0,VALID,67.8082,VALID,0,VALID,22.9926,VALID,85,VALID,0,
2010-01-30, 02:43:04,VALID,1010.06,VALID,0,VALID,67.8158,VALID,0,VALID,22.9926,VALID,85,VALID,0,
2010-01-30, 02:44:04,VALID,1010.04,VALID,0,VALID,67.8311,VALID,0.105969,VALID,22.9714,VALID,85,VALID,0,
2010-01-30, 02:45:04,VALID,1010.05,VALID,0,VALID,67.8311,VALID,0,VALID,22.9519,VALID,85,VALID,0,
2010-01-30, 02:46:04,VALID,1010.03,VALID,0,VALID,67.8387,VALID,0,VALID,22.9731,VALID,89,VALID,0,
2010-01-30, 02:47:04,VALID,1010.04,VALID,0,VALID,67.8463,VALID,0,VALID,22.9536,VALID,101,VALID,0.269141,
2010-01-30, 02:48:04,VALID,1010.03,VALID,0,VALID,67.8311,VALID,0,VALID,22.9342,VALID,99,VALID,0.5375,
2010-01-30, 02:49:04,VALID,1010.01,VALID,0,VALID,67.8387,VALID,0.105969,VALID,22.9129,VALID,87,VALID,0.562891,
2010-01-30, 02:50:04,VALID,1010,VALID,0,VALID,67.8311,VALID,0,VALID,22.9342,VALID,87,VALID,0.149609,
2010-01-30, 02:51:04,VALID,1009.95,VALID,0,VALID,67.8311,VALID,0,VALID,22.9342,VALID,86,VALID,0,
2010-01-30, 02:52:04,VALID,1009.96,VALID,0,VALID,67.7853,VALID,0,VALID,22.9324,VALID,81,VALID,0.216406,
2010-01-30, 02:53:04,VALID,1009.93,VALID,0,VALID,67.7929,VALID,0.105969,VALID,22.9536,VALID,81,VALID,0.201172,
2010-01-30, 02:54:04,VALID,1009.92,VALID,0,VALID,67.7929,VALID,0,VALID,22.9536,VALID,81,VALID,0.352734,
2010-01-30, 02:55:04,VALID,1009.85,VALID,0,VALID,67.7853,VALID,0,VALID,22.9536,VALID,81,VALID,0.235156,
2010-01-30, 02:56:04,VALID,1009.85,VALID,0,VALID,67.7929,VALID,0.105969,VALID,22.9731,VALID,81,VALID,0,
2010-01-30, 02:57:04,VALID,1009.84,VALID,0,VALID,67.7929,VALID,0,VALID,22.9731,VALID,81,VALID,0,
2010-01-30, 02:58:04,VALID,1009.81,VALID,0,VALID,67.8006,VALID,0,VALID,22.9536,VALID,81,VALID,0,
2010-01-30, 02:59:04,VALID,1009.82,VALID,0,VALID,67.8082,VALID,0,VALID,22.9147,VALID,81,VALID,0,
2010-01-30, 03:00:04,VALID,1009.78,VALID,0,VALID,67.8158,VALID,0,VALID,22.9147,VALID,81,VALID,0,
2010-01-30, 03:01:04,VALID,1009.78,VALID,0,VALID,67.7929,VALID,0,VALID,22.9359,VALID,81,VALID,0,
2010-01-30, 03:02:04,VALID,1009.78,VALID,0,VALID,67.8082,VALID,0,VALID,22.9147,VALID,81,VALID,0.06875,
2010-01-30, 03:03:04,VALID,1009.76,VALID,0,VALID,67.7929,VALID,0,VALID,22.9359,VALID,81,VALID,0,
2010-01-30, 03:04:04,VALID,1009.76,VALID,0,VALID,67.7929,VALID,0,VALID,22.9359,VALID,81,VALID,0,
2010-01-30, 03:05:04,VALID,1009.76,VALID,0,VALID,67.7701,VALID,0,VALID,22.9342,VALID,54,VALID,0,
2010-01-30, 03:06:04,VALID,1009.74,VALID,0,VALID,67.7548,VALID,0,VALID,22.9554,VALID,330,VALID,0,
2010-01-30, 03:07:04,VALID,1009.74,VALID,0,VALID,67.7853,VALID,0,VALID,22.9554,VALID,321,VALID,0,
2010-01-30, 03:08:04,VALID,1009.73,VALID,0,VALID,67.7548,VALID,0,VALID,22.9554,VALID,295,VALID,0,
2010-01-30, 03:09:04,VALID,1009.74,VALID,0,VALID,67.7701,VALID,0,VALID,22.9554,VALID,295,VALID,0,
2010-01-30, 03:10:04,VALID,1009.76,VALID,0,VALID,67.7396,VALID,0,VALID,22.9749,VALID,295,VALID,0,
2010-01-30, 03:11:04,VALID,1009.75,VALID,0,VALID,67.7167,VALID,0,VALID,22.9943,VALID,295,VALID,0,
2010-01-30, 03:12:04,VALID,1009.76,VALID,0,VALID,67.7472,VALID,0,VALID,22.9731,VALID,295,VALID,0,
2010-01-30, 03:13:04,VALID,1009.76,VALID,0,VALID,67.7396,VALID,0,VALID,22.9731,VALID,308,VALID,0,
2010-01-30, 03:14:04,VALID,1009.75,VALID,0,VALID,67.7472,VALID,0,VALID,22.9943,VALID,306,VALID,0,
2010-01-30, 03:15:04,VALID,1009.79,VALID,0,VALID,67.7319,VALID,0,VALID,22.9731,VALID,306,VALID,0,
2010-01-30, 03:16:04,VALID,1009.8,VALID,0,VALID,67.7167,VALID,0,VALID,22.9926,VALID,295,VALID,0,
2010-01-30, 03:17:04,VALID,1009.81,VALID,0,VALID,67.7243,VALID,0,VALID,22.9943,VALID,295,VALID,0,
2010-01-30, 03:18:04,VALID,1009.79,VALID,0,VALID,67.7167,VALID,0,VALID,22.9926,VALID,295,VALID,0,
2010-01-30, 03:19:04,VALID,1009.79,VALID,0,VALID,67.7091,VALID,0,VALID,22.9926,VALID,293,VALID,0,
2010-01-30, 03:20:04,VALID,1009.81,VALID,0,VALID,67.7014,VALID,0,VALID,22.9926,VALID,293,VALID,0,
2010-01-30, 03:21:04,VALID,1009.79,VALID,0,VALID,67.7243,VALID,0,VALID,23.0138,VALID,293,VALID,0,
2010-01-30, 03:22:04,VALID,1009.79,VALID,0,VALID,67.7091,VALID,0,VALID,23.0121,VALID,293,VALID,0,
2010-01-30, 03:23:04,VALID,1009.79,VALID,0,VALID,67.7472,VALID,0,VALID,23.0138,VALID,293,VALID,0,
2010-01-30, 03:24:04,VALID,1009.8,VALID,0,VALID,67.8082,VALID,0,VALID,22.9554,VALID,293,VALID,0,
2010-01-30, 03:25:04,VALID,1009.81,VALID,0,VALID,67.7777,VALID,0,VALID,22.9554,VALID,293,VALID,0,
2010-01-30, 03:26:04,VALID,1009.8,VALID,0,VALID,67.7853,VALID,0,VALID,22.9147,VALID,293,VALID,0,
2010-01-30, 03:27:04,VALID,1009.82,VALID,0,VALID,67.8006,VALID,0,VALID,22.9147,VALID,293,VALID,0,
2010-01-30, 03:28:04,VALID,1009.8,VALID,0,VALID,67.8463,VALID,0.105969,VALID,22.8545,VALID,293,VALID,0,
2010-01-30, 03:29:04,VALID,1009.81,VALID,0,VALID,67.8692,VALID,0,VALID,22.835,VALID,293,VALID,0,
2010-01-30, 03:30:04,VALID,1009.77,VALID,0,VALID,67.8616,VALID,0.105969,VALID,22.835,VALID,293,VALID,0,
2010-01-30, 03:31:04,VALID,1009.8,VALID,0,VALID,67.8311,VALID,0.105969,VALID,22.8368,VALID,293,VALID,0,
2010-01-30, 03:32:04,VALID,1009.78,VALID,0,VALID,67.8082,VALID,0.105969,VALID,22.835,VALID,293,VALID,0,
2010-01-30, 03:33:04,VALID,1009.78,VALID,0,VALID,67.7853,VALID,0,VALID,22.8545,VALID,293,VALID,0,
2010-01-30, 03:34:04,VALID,1009.8,VALID,0,VALID,67.7853,VALID,0.105969,VALID,22.8757,VALID,293,VALID,0,
2010-01-30, 03:35:04,VALID,1009.78,VALID,0,VALID,67.7624,VALID,0.105969,VALID,22.8562,VALID,293,VALID,0,
2010-01-30, 03:36:04,VALID,1009.79,VALID,0,VALID,67.7929,VALID,0,VALID,22.8562,VALID,293,VALID,0,
2010-01-30, 03:37:04,VALID,1009.81,VALID,0,VALID,67.7853,VALID,0.105969,VALID,22.8562,VALID,293,VALID,0,
2010-01-30, 03:38:04,VALID,1009.82,VALID,0,VALID,67.7853,VALID,0,VALID,22.835,VALID,293,VALID,0,
2010-01-30, 03:39:04,VALID,1009.83,VALID,0,VALID,67.7777,VALID,0,VALID,22.8562,VALID,293,VALID,0,
2010-01-30, 03:40:04,VALID,1009.83,VALID,0,VALID,67.7701,VALID,0,VALID,22.835,VALID,293,VALID,0,
2010-01-30, 03:41:04,VALID,1009.87,VALID,0,VALID,67.8006,VALID,0,VALID,22.8368,VALID,293,VALID,0,
2010-01-30, 03:42:04,VALID,1009.88,VALID,0,VALID,67.8082,VALID,0.105969,VALID,22.8368,VALID,293,VALID,0,
2010-01-30, 03:43:04,VALID,1009.91,VALID,0,VALID,67.8158,VALID,0,VALID,22.8155,VALID,293,VALID,0,
2010-01-30, 03:44:04,VALID,1009.89,VALID,0,VALID,67.8082,VALID,0.105969,VALID,22.8368,VALID,293,VALID,0,
2010-01-30, 03:45:04,VALID,1009.89,VALID,0,VALID,67.8158,VALID,0.105969,VALID,22.7961,VALID,293,VALID,0,
2010-01-30, 03:46:04,VALID,1009.89,VALID,0,VALID,67.8234,VALID,0.105969,VALID,22.8368,VALID,293,VALID,0,
2010-01-30, 03:47:04,VALID,1009.9,VALID,0,VALID,67.8234,VALID,0,VALID,22.8173,VALID,293,VALID,0,
2010-01-30, 03:48:04,VALID,1009.9,VALID,0,VALID,67.8463,VALID,0.105969,VALID,22.7961,VALID,293,VALID,0,
2010-01-30, 03:49:04,VALID,1009.9,VALID,0,VALID,67.8463,VALID,0,VALID,22.7783,VALID,293,VALID,0,
2010-01-30, 03:50:04,VALID,1009.94,VALID,0,VALID,67.8921,VALID,0.105969,VALID,22.7182,VALID,293,VALID,0,
2010-01-30, 03:51:04,VALID,1009.93,VALID,0,VALID,67.9073,VALID,0.105969,VALID,22.7199,VALID,293,VALID,0,
2010-01-30, 03:52:04,VALID,1009.96,VALID,0,VALID,67.9455,VALID,0.105969,VALID,22.6809,VALID,293,VALID,0,
2010-01-30, 03:53:04,VALID,1009.98,VALID,0,VALID,67.9378,VALID,0,VALID,22.6809,VALID,293,VALID,0,
2010-01-30, 03:54:04,VALID,1010.01,VALID,0,VALID,67.9073,VALID,0,VALID,22.6809,VALID,293,VALID,0,
2010-01-30, 03:55:04,VALID,1010.01,VALID,0,VALID,67.8921,VALID,0,VALID,22.6597,VALID,293,VALID,0,